Weather History for KSHV - November, 2011

Change the Weather History Date:

Monday, November 14, 2011

  Actual Average Record
Temperature  
Mean Temperature 77 °F 57 °F  
Max Temperature 84 °F 68 °F 85 °F (1955)
Min Temperature 70 °F 46 °F 24 °F (1940)
Degree Days  
Heating Degree Days 0 9  
Month to date heating degree days 79 100  
Since 1 July heating degree days 147 186  
Cooling Degree Days 12 1  
Month to date cooling degree days 36 18  
Year to date cooling degree days 3372 2467  
Growing Degree Days 26 (Base 50)    
Moisture  
Dew Point 65 °F    
Average Humidity 68    
Maximum Humidity 84    
Minimum Humidity 51    
Precipitation  
Precipitation 0.00 in 0.15 in 2.67 in (1993)
Month to date precipitation 1.49 2.17  
Year to date precipitation 22.43 44.28  
Snow  
Snow 0.00 in - - ()
Month to date snowfall 0.0  
Since 1 July snowfall 0.0  
Since 1 September snowfall 0.0  
Snow Depth 0.00 in    
Sea Level Pressure  
Sea Level Pressure 29.85 in    
Wind  
Wind Speed 10 mph (South)    
Max Wind Speed 18 mph    
Max Gust Speed 24 mph    
Visibility 10 miles    
Events      
T = Trace of Precipitation, MM = Missing Value Source: NWS Daily Summary

Daily Weather History Graph

Daily Weather History Graph

Search for Another Location

Airport or City:

Trip Planner

Search our weather history database for the weather conditions in past years. The results will help you decide how hot, cold, wet, or windy it might be!

Date:

Astronomy

Nov. 14, 2011 Rise Set
Actual Time 6:43 AM CST 5:15 PM CST
Civil Twilight 6:17 AM CST 5:41 PM CST
Nautical Twilight 5:48 AM CST 6:10 PM CST
Astronomical Twilight 5:18 AM CST 6:40 PM CST
Moon 8:26 PM CST (11/14) 9:58 AM CST (11/14)
Length of Visible Light 11h 23m
Length of Day
10h 31m
Waning Gibbous, 86% of the Moon is Illuminated
Nov 14
Waning Gibbous
Nov 18
Last Quarter
Nov 25
New
Dec 2
First Quarter
Dec 10
Full

Hourly Weather History & Observations

Time (CST) Temp. Heat Index Dew Point Humidity Pressure Visibility Wind Dir Wind Speed Gust Speed Precip Events Conditions
12:17 AM 73.4 °F - 66.2 °F 78% 29.89 in 10.0 mi SSW 12.7 mph - N/A   Overcast
12:56 AM 73.0 °F - 66.9 °F 81% 29.88 in 10.0 mi South 12.7 mph - N/A   Overcast
1:56 AM 73.0 °F - 66.9 °F 81% 29.87 in 10.0 mi SSW 10.4 mph - N/A   Overcast
2:56 AM 72.0 °F - 66.9 °F 84% 29.87 in 10.0 mi South 11.5 mph - N/A   Overcast
3:12 AM 71.6 °F - 66.2 °F 83% 29.88 in 10.0 mi SSW 12.7 mph 19.6 mph N/A   Overcast
3:44 AM 71.6 °F - 66.2 °F 83% 29.87 in 10.0 mi South 9.2 mph - N/A   Mostly Cloudy
3:56 AM 72.0 °F - 66.9 °F 84% 29.86 in 10.0 mi South 10.4 mph - N/A   Mostly Cloudy
4:56 AM 71.6 °F - 66.2 °F 83% 29.88 in 10.0 mi South 8.1 mph - N/A   Overcast
5:56 AM 71.1 °F - 66.9 °F 87% 29.87 in 10.0 mi South 8.1 mph - N/A   Overcast
6:56 AM 71.1 °F - 66.0 °F 84% 29.88 in 10.0 mi South 6.9 mph - N/A   Mostly Cloudy
7:56 AM 72.0 °F - 66.9 °F 84% 29.89 in 10.0 mi South 9.2 mph - N/A   Mostly Cloudy
8:11 AM 73.4 °F - 66.2 °F 78% 29.90 in 10.0 mi South 8.1 mph - N/A   Mostly Cloudy
8:56 AM 73.9 °F - 66.9 °F 79% 29.91 in 10.0 mi South 12.7 mph 17.3 mph N/A   Overcast
9:56 AM 78.1 °F - 66.0 °F 66% 29.91 in 10.0 mi SSW 12.7 mph - N/A   Scattered Clouds
10:56 AM 79.0 °F - 64.0 °F 60% 29.89 in 10.0 mi SSW 13.8 mph 24.2 mph N/A   Mostly Cloudy
11:56 AM 80.1 °F 81.7 °F 64.0 °F 58% 29.86 in 10.0 mi SSW 13.8 mph - N/A   Overcast
12:56 PM 81.0 °F 82.2 °F 63.0 °F 54% 29.83 in 10.0 mi SW 12.7 mph 17.3 mph N/A   Overcast
1:56 PM 82.4 °F 83.4 °F 62.6 °F 51% 29.82 in 10.0 mi SSW 12.7 mph - N/A   Overcast
2:56 PM 82.9 °F 84.0 °F 63.0 °F 51% 29.79 in 10.0 mi South 10.4 mph - N/A   Overcast
3:56 PM 81.0 °F 82.2 °F 63.0 °F 54% 29.79 in 10.0 mi SSW 5.8 mph - N/A   Mostly Cloudy
4:56 PM 79.0 °F - 63.0 °F 58% 29.78 in 10.0 mi South 9.2 mph - N/A   Mostly Cloudy
5:56 PM 73.0 °F - 62.1 °F 68% 29.80 in 10.0 mi SSE 5.8 mph - N/A   Mostly Cloudy
6:56 PM 73.0 °F - 63.0 °F 71% 29.80 in 10.0 mi South 9.2 mph - N/A   Mostly Cloudy
7:56 PM 73.0 °F - 64.0 °F 73% 29.81 in 10.0 mi South 9.2 mph - N/A   Overcast
8:56 PM 72.0 °F - 64.0 °F 76% 29.81 in 10.0 mi South 8.1 mph - N/A   Mostly Cloudy
9:56 PM 72.0 °F - 64.0 °F 76% 29.82 in 10.0 mi South 11.5 mph - N/A   Clear
10:56 PM 71.1 °F - 64.0 °F 78% 29.82 in 10.0 mi South 9.2 mph - N/A   Scattered Clouds
11:56 PM 71.1 °F - 64.9 °F 81% 29.82 in 10.0 mi South 10.4 mph - N/A   Mostly Cloudy